NOAA 16 DEB, 41288

Orbit data source: Space-Track

NOAA 16 DEB, 41288 is space debris in SSO originally from a launch on Thu, 21 Sep 2000 UTC launched from the Air Force Western Test Range (AFWTR). Debris objects in space refer to the collection of defunct objects orbiting the Earth. Examples of debris include non-operational satellites, rocket bodies, and fragments generated from explosions, collisions, or faulty payload assembly.

Loading next visibility...
Identifier
41288, 2000-055GQ
Orbit
SSO
Country
Flag of USUS
Related business
Manufacturer
Unknown
Mission
Spacecraft
Bus & Motor
Unknown
Mass
Unknown
Launch date (UTC)
2000-09-21 (26 years ago)
Launch vehicle
Unknown
Launch site
Air Force Western Test Range (AFWTR)
Object type
Payload
Rocket body
Debris
Shape & HBR
Unknown shape, 0.1 m
Radar Cross Section
Medium (>0.1 m² and <1 m²)

Expand to show TLE details & history
Last TLE update: 3 days ago

TLE from 3 days ago
0 NOAA 16 DEB
1 41288U 00055GQ  26170.75153101  .00006040  00000-0  20064-2 0  9996
2 41288  98.9009 279.5637 0025252 208.4394 151.5415 14.37933522540713
Epoch: 2026-06-19T18:02Z
TLE epoch observation values (Epoch: 2026-06-19T18:02:12.279Z)
Latitude
-0.00002°
Longitude
101.03653°
Altitude
784.139 km
Speed
7.453 km/s
True Right ascension
18h 38m 15s
True Declination
0° 00' 00"
Sunlit
Object was in full shadow at epoch
Visualization orbit readout
Latitude
Unknown
Longitude
Unknown
Altitude
Unknown
Speed
Unknown
Apparent Right ascension
Unknown
Apparent Declination
Unknown
Sunlit
N/A
Visualization observer readout
Local Sidereal Time
21:38:04
Azimuth
Unknown
Elevation
Unknown
Doppler factor
Unknown
Orbital elements
Apogee altitude
780.51 km
Perigee altitude
744.447 km
Semi-major axis
7,140.615 km
Eccentricity
0.00253
Inclination
98.9009°
RAAN
279.5637°
Arg. of periapsis
208.4394°
True anomaly
151.67901°
Mean anomaly
151.5415°
Eccentric anomaly
151.61029°
Mean motion
3.59699 °/min
Orbital period
100.08 mins
BSTAR
0.0020064
Loading maneuver chart data...
Computing Atmospheric mass density...
Loading historical data...
Loading historical data...
Loading historical data...
Loading historical data...
Loading historical data...
Loading historical data...
Loading historical data...

Documentation

Showing up to 5 results
|